Location: Santa Barbara
(34.4500°N, 119.7700°W)
Time: 04:06:27
(UTC-07:00)

Cosmos 1626 Rocket - Visible Passes

Search period start: 25 May 2018 00:00
Search period end: 04 June 2018 00:00
Orbit: 604 x 630 km, 82.5° (Epoch: 25 May)

Date Brightness Start Highest point End Pass type
(mag) Time Alt. Az. Time Alt. Az. Time Alt. Az.
26 May 5.7 00:15:12 24° N 00:15:12 24° N 00:17:03 10° N visible
27 May 5.8 00:31:41 23° NNW 00:31:41 23° NNW 00:33:36 10° N visible
27 May 5.9 23:11:03 16° NE 23:11:03 16° NE 23:12:14 10° NNE visible
28 May 6.1 00:48:09 17° NW 00:48:09 17° NW 00:49:44 10° NNW visible
28 May 5.4 23:27:30 25° NNE 23:27:30 25° NNE 23:29:31 10° NNE visible
29 May 6.5 01:04:36 10° NW 01:04:36 10° NW 01:04:43 10° NW visible
29 May 5.2 23:43:56 32° N 23:43:56 32° N 23:46:24 10° N visible
30 May 6.0 22:23:15 11° ENE 22:23:15 11° ENE 22:23:32 10° ENE visible
31 May 5.4 00:00:21 29° NW 00:00:21 29° NW 00:02:58 10° N visible
31 May 5.4 22:39:39 20° NE 22:39:39 20° NE 22:41:36 10° NNE visible
01 Jun 5.9 00:16:44 20° NW 00:16:44 20° NW 00:19:05 10° NNW visible
01 Jun 4.7 22:56:01 35° NE 22:56:01 35° NE 22:58:52 10° NNE visible
02 Jun 6.4 00:33:07 11° WNW 00:33:07 11° WNW 00:34:06 10° NW visible
02 Jun 4.3 23:12:22 51° N 23:12:22 51° N 23:15:45 10° N visible
03 Jun 5.7 21:51:36 13° ENE 21:51:36 13° ENE 21:52:53 10° ENE visible
03 Jun 4.8 23:28:41 38° WNW 23:28:41 38° WNW 23:32:19 10° N visible
